Regional Weather Roundup
Issued by NWS

Home | Current Version | Previous Version | Graphics & Text | Print | Product List | Glossary Off
Versions: 1 2 3 4 5 6 7 8 9 10 11 12 13 14 15 16 17 18 19 20 21 22 23 24 25 26 27 28 29 30 31 32 33 34 35 36 37 38 39 40 41 42 43 44 45 46 47 48 49 50

000
ASUS43 KMKX 160920
RWRWI

WISCONSIN REGIONAL WEATHER ROUNDUP
NATIONAL WEATHER SERVICE MILWAUKEE/SULLIVAN WI
300 AM CST TUE JAN 16 2018

NOTE: "FAIR" INDICATES FEW OR NO CLOUDS BELOW 12,000 FEET WITH NO
SIGNIFICANT WEATHER AND/OR OBSTRUCTIONS TO VISIBILITY.

WIZ001-002-006>008-014>016-023>028-161000-
NORTHWEST WISCONSIN

CITY           SKY/WX    TMP DP  RH WIND       PRES   REMARKS
SUPERIOR ARPT  CLOUDY     6   1  77 NW7       30.64R WCI  -5
ASHLAND        MIX PCPN  19  14  81 N14       30.55R WCI   6
HAYWARD        LGT SNOW  12   7  80 VRB5      30.52R WCI   4
SIREN          MOCLDY     1  -2  84 NW3       30.59R
CUMBERLAND     FAIR       3   0  85 N12       30.52S WCI -13
RICE LAKE      LGT SNOW   4   1  85 CALM      30.54R
CHETEK         FAIR       3   0  84 CALM      30.52R
LADYSMITH      MOCLDY     9   6  89 NW8       30.50R WCI  -3
EAU CLAIRE     FAIR       7   3  84 N6        30.51R WCI  -3
MENOMONIE      FAIR       7   2  80 NW12      30.54R WCI  -8
NEW RICHMOND   LGT SNOW   0  -5  81 NW9       30.57R WCI -16
OSCEOLA        MOCLDY     0  -3  85 NW3       30.63R
$$

WIZ003>005-009-010-017-018-161000-
NORTH CENTRAL WISCONSIN

CITY           SKY/WX    TMP DP  RH WIND       PRES   REMARKS
MANITOWISH WTR CLOUDY    -2  -4  91 CALM      30.42S
ARBOR VITAE    FAIR       1  -3  84 N3        30.41S
WOODRUFF       FAIR       1  -3  84 N3        30.41S
RHINELANDER    FAIR       7   4  87 N3        30.41R
EAGLE RIVER    FLURRIES  -2  -6  83 CALM      30.40R
LAND O LAKES   SNOW      -1  -4  85 CALM      30.41S VSB 1/2
PHILLIPS       FAIR      -3  -6  89 CALM      30.44R
TOMAHAWK       FAIR       2  -1  85 CALM      30.43R
MEDFORD        FAIR       6   4  89 N6        30.41S WCI  -4
MERRILL        FAIR       8   6  92 N3        30.44R
$$

WIZ029-030-035-036-043>047-161000-
CENTRAL WISCONSIN

CITY           SKY/WX    TMP DP  RH WIND       PRES   REMARKS
WAUSAU         CLOUDY    10   7  87 N5        30.41R WCI   2
MOSINEE        FLURRIES  10   9  92 N10       30.42R WCI  -3
MARSHFIELD     FAIR      12   8  84 N9        30.41R WCI   0
STEVENS POINT  MOCLDY     9   7  94 N7        30.42R WCI  -3
WAUPACA        CLOUDY    16  11  80 N7        30.41S WCI   7
WAUTOMA        FLURRIES  14  10  84 N8        30.42R WCI   3
WISC RAPIDS    CLOUDY    11   6  81 N9        30.43R WCI  -2
CAMP DOUGLAS   FAIR     N/A N/A N/A W6        30.46R
$$

WIZ011>013-019>022-031-037>040-048>050-161000-
NORTHEAST WISCONSIN

CITY           SKY/WX    TMP DP  RH WIND       PRES   REMARKS
ANTIGO         FAIR       6   4  91 N6        30.39S WCI  -4
SHAWANO        CLOUDY    16  11  83 N6        30.42R WCI   7
OCONTO         FAIR      12   9  87 N7        30.42R WCI   2
STURGEON BAY   FLURRIES  11   8  88 N15       30.39R WCI  -5
GREEN BAY      LGT SNOW  16  12  84 N10       30.40R FOG     WCI   4
MANITOWOC      LGT SNOW  18  14  86 N13       30.37R FOG     WCI   4
APPLETON       CLOUDY    16  10  79 N12       30.37R WCI   3
CLINTONVILLE   CLOUDY    16  10  79 N8        30.41R WCI   5
OSHKOSH        LGT SNOW  14  11  87 N10       30.38R FOG     WCI   1
$$

WIZ032>034-041-042-053>061-161000-
SOUTHWEST WISCONSIN

CITY           SKY/WX    TMP DP  RH WIND       PRES   REMARKS
LA CROSSE      LGT SNOW   9   3  77 N12       30.52R WCI  -6
SPARTA         FAIR       9   6  89 CALM      30.49R
VIROQUA        CLOUDY     6   5  93 NW9       30.43R WCI  -7
BOSCOBEL       CLOUDY    10   3  73 CALM      30.49R
PRAIRIE DU CHI CLOUDY     8   1  73 NW7       30.51R WCI  -4
PLATTEVILLE    CLOUDY     7   4  89 NW10      30.44R WCI  -8
$$

WIZ056-057-062-063-064-067-068-161000-
SOUTH CENTRAL WISCONSIN

CITY           SKY/WX    TMP DP  RH WIND       PRES   REMARKS
REEDSBURG      FLURRIES   8   6  89 NW3       30.43R
BARABOO/DELLS  FLURRIES  10   7  87 NW5       30.41R WCI   2
LONE ROCK      MOCLDY    10   5  80 W5        30.46R WCI   2
MINERAL POINT  FLURRIES  10   9  92 NW13      30.40R WCI  -5
MADISON        CLOUDY    14  10  84 N8        30.39R WCI   3
MIDDLETON      CLOUDY    14  11  86 NW9       30.40R WCI   2
WATERTOWN      MOCLDY    15  14  96 N9        30.36R WCI   3
MONROE         CLOUDY    10   9  92 NW13      30.37R WCI  -5
JANESVILLE     CLOUDY    12  12 100 NW7       30.37R WCI   2
$$

WIZ051-052-058>065-066-070>072-161000-
SOUTHEAST WISCONSIN

CITY           SKY/WX    TMP DP  RH WIND       PRES   REMARKS
MILWAUKEE      LGT SNOW  21  17  84 N9        30.33R FOG     WCI  11
WAUKESHA       LGT SNOW  18  14  86 NW7       30.34R WCI   8
MILWAUKEE/TIMM LGT SNOW  19  14  79 N8        30.34R WCI   9
RACINE         LGT SNOW  20  17  88 NW8       30.34R FOG     WCI  10
BURLINGTON     FAIR      18  13  83 NW8       30.33R WCI   7
KENOSHA        LGT SNOW  20  16  84 NW8       30.32R FOG     WCI  10
FOND DU LAC    CLOUDY    16  10  77 N9        30.38R WCI   4
SHEBOYGAN      LGT SNOW  17  14  88 N12       30.35R FOG     WCI   4
WEST BEND      CLOUDY    18  16  93 NW7       30.34R WCI   8
JUNEAU         LGT SNOW  13  11  90 N13       30.37R WCI  -1
$$

LSZ147-162-161000-
LAKE SUPERIOR

STATION/POSITION TIME  TEMP    WIND        PRES    WAVE
                       AIR SEA DIR/SP/G            HT/PER
                 (UTC) (F)     (DEG/KT/KT) (MB)    (FT/S)
DEVILS ISLAND    0900   20     360/ 15/ 18 1036.4R
SAXON HARBOR     0901   24      20/ 20/ 27 1032.5S
$$

LMZ867-665-643>646-161000-
LAKE MICHIGAN

STATION/POSITION TIME  TEMP    WIND        PRES    WAVE
                       AIR SEA DIR/SP/G            HT/PER
                 (UTC) (F)     (DEG/KT/KT) (MB)    (FT/S)
NORTHPORT PIER   0840   18      CALM  /  1 1029.5R
KEWAUNEE LAKESHO 0854   18     320/  6/ 11 1027.4R
SHEBOYGAN LAKESH 0900   19     320/ 12/ 14 1028.8R
PORT WASHINGTON  0830   19     330/  6/  9 1028.4R
MILWAUKEE LAKESH 0900   20     330/ 10/ 14   N/A
KENOSHA   LAKESH 0900   21     340/ 10/ 13 1026.8
$$

TC  - TEMPERATURE IN CELSIUS
VSB - VISIBILITY IN STATUTE MILES
WCI - WIND CHILL INDEX
HX  - HEAT INDEX





USA.gov is the U.S. government's official web portal to all federal, state and local government web resources and services.